Weather observations for the past three days for
Port Aransas, Mustang Beach Airport
Imperial (Metric)
Date Time (cdt) Wind (mph) Vis. (mi.) Weather Sky Cond. Temperature (ºF) Relative Humidity Wind Chill (°F) Heat Index (°F) Pressure Precipitation (in)
Air Dwpt 6 hour altimeter (in) sea level (mb) 1 hr 3 hr 6 hr
Max. Min.
12 14:55 SE 7 10.00 Fair CLR 86.9 74.5 67% 96 30.07 0.0
12 14:35 E 7 10.00 Fair CLR 86.7 73 64% 94 30.07 0.0
12 14:15 SE 7 10.00 Fair CLR 86.7 73.4 65% 94 30.07 0.0
12 13:55 SE 5 10.00 Fair CLR 86.5 72.3 63% 93 30.07 0.0
12 13:35 SE 6 10.00 Fair CLR 85.3 73.4 68% 92 30.09 0.0
12 13:15 SE 5 10.00 Fair CLR 84.2 72.9 69% 91 30.09 0.0
12 12:55 E 5 10.00 Fair CLR 82.8 72.7 82.9 75.9 72% 88 30.1 0.0 0.16
12 12:35 SE 3 10.00 Partly Cloudy SCT100 SCT120 81.9 72.7 74% 87 30.1 0.0
12 12:15 E 6 10.00 Light Rain SCT075 OVC100 80.4 73.6 80% 85 30.1 0.0
12 11:55 SE 6 10.00 Light Rain SCT065 OVC090 79.2 72.9 81% 83 30.1 0.0 0.02
12 11:35 S 7 10.00 Light Rain SCT080 OVC090 79 71.6 78% 82 30.1 0.0
12 11:15 S 5 10.00 Light Drizzle SCT036 SCT060 BKN075 78.8 69.8 74% 81 30.1 0.0
12 10:55 S 7 10.00 Light Rain SCT031 BKN037 BKN110 78.1 70.9 79% 80 30.1 0.0
12 10:35 S 7 10.00 Fair CLR 77.4 72.3 85% 79 30.1 0.0
12 10:15 SW 7 10.00 Partly Cloudy SCT110 76.6 72.5 87% 78 30.1 0.0
12 09:55 SW 10 10.00 Light Rain SCT037 SCT047 BKN120 76.8 73 88% 78 30.1 0.0 0.01 0.14
12 09:35 SW 10 G 16 10.00 Light Rain SCT020 SCT036 BKN080 76.6 73.6 90% 77 30.1 0.0 0.01
12 09:15 S 12 G 17 10.00 Light Drizzle SCT017 SCT036 BKN090 77.2 74.5 91% 79 30.11 0.0
12 08:55 Calm 10.00 Light Drizzle SCT039 SCT045 BKN090 76.6 74.5 93% 77 30.09 0.0 0.03
12 08:35 Calm 10.00 Light Rain SCT038 SCT047 BKN090 76.5 74.5 94% 77 30.08 0.0 0.03
12 08:15 NW 5 5.00 Light Rain Fog/Mist SCT044 BKN055 OVC100 76.5 74.7 94% 77 30.08 0.0 0.02
12 07:55 W 6 4.00 Light Rain Fog/Mist OVC100 76.6 74.1 92% 77 30.08 0.0 0.1
12 07:35 W 6 4.00 Light Rain Fog/Mist OVC100 76.5 73.6 91% 77 30.07 0.0 0.08
12 07:15 SW 3 5.00 Light Rain Fog/Mist OVC100 76.1 73.4 91% 76 30.07 0.0 0.05
12 06:55 SW 7 10.00 Light Rain SCT047 SCT070 OVC090 75.9 73.6 83.1 74.8 93% 76 30.06 0.0 0.22 0.28
12 06:35 SW 7 5.00 Light Rain Fog/Mist SCT037 BKN049 OVC075 75.4 72.9 92% 75 30.05 0.0 0.2
12 06:15 S 13 G 26 3.00 Rain Fog/Mist SCT012 BKN039 OVC050 75.9 73 91% 76 30.04 0.0 0.1
12 05:55 S 20 G 23 10.00 Mostly Cloudy SCT015 SCT022 BKN050 77.7 73.4 87% 80 30.03 0.0 0.06
12 05:35 N 6 10.00 Light Rain SCT022 SCT038 BKN095 77.7 71.8 82% 80 30.01 0.0 0.06
12 05:15 SE 8 7.00 Rain BKN022 BKN033 OVC060 80.2 71.1 74% 84 30.01 0.0 0.03
12 04:55 S 5 10.00 Mostly Cloudy BKN022 BKN034 BKN046 82.8 76.3 81% 91 30 0.0
12 04:35 S 6 10.00 Partly Cloudy SCT020 SCT046 82.9 76.1 80% 91 30 0.0
12 04:15 SE 6 10.00 Partly Cloudy SCT020 SCT026 82.6 76.3 81% 91 30 0.0
12 03:55 S 7 10.00 Partly Cloudy SCT020 82.9 75.7 79% 91 30 0.0
12 03:35 S 8 10.00 Partly Cloudy SCT020 SCT026 SCT120 83.1 75.6 78% 91 30 0.0
12 03:15 S 7 10.00 Mostly Cloudy SCT020 SCT026 BKN120 82.9 75.6 78% 91 30.01 0.0
12 02:55 S 8 10.00 Mostly Cloudy BKN020 BKN028 82.9 75.7 79% 91 30.01 0.0
12 02:35 S 6 10.00 Partly Cloudy SCT020 SCT028 82.9 75.7 79% 91 30.01 0.0
12 02:15 S 6 10.00 Partly Cloudy SCT020 SCT025 SCT034 82.9 75.7 79% 91 30.01 0.0
12 01:55 S 7 10.00 Partly Cloudy SCT022 SCT026 SCT034 82.9 75.9 79% 91 30.02 0.0
12 01:35 SE 7 10.00 Partly Cloudy SCT022 SCT027 SCT035 82.8 75.4 78% 90 30.02 0.0
12 01:15 SE 6 10.00 Mostly Cloudy BKN020 BKN031 BKN120 82.8 75.9 80% 91 30.03 0.0
12 00:55 SE 8 10.00 Mostly Cloudy SCT018 SCT025 BKN120 82.6 75.9 83.1 82.4 80% 90 30.03 0.0
12 00:35 SE 8 10.00 Partly Cloudy SCT018 82.8 75.9 80% 91 30.03 0.0
12 00:15 SE 8 10.00 Partly Cloudy SCT018 82.9 76.1 80% 91 30.03 0.0
11 23:55 SE 7 10.00 Partly Cloudy SCT020 82.8 75.7 79% 91 30.03 0.0
11 23:35 SE 5 10.00 Partly Cloudy SCT020 82.9 75.7 79% 91 30.03 0.0
11 23:15 SE 6 10.00 Partly Cloudy SCT020 82.8 75.9 80% 91 30.02 0.0
11 22:55 SE 6 10.00 Partly Cloudy SCT020 82.8 75.7 79% 91 30.02 0.0
11 22:35 SE 8 10.00 Mostly Cloudy BKN020 BKN026 BKN033 82.8 75.7 79% 91 30.01 0.0
11 22:15 E 6 10.00 Mostly Cloudy BKN018 82.8 76.1 80% 91 30.01 0.0
11 21:55 SE 7 10.00 Mostly Cloudy BKN018 BKN025 82.8 75.9 80% 91 30.01 0.0
11 21:35 E 7 10.00 Partly Cloudy SCT018 SCT025 82.8 75.7 79% 91 30.01 0.0
11 21:15 SE 7 10.00 Fair CLR 82.9 75.4 78% 91 30 0.0
11 20:55 E 5 10.00 Fair CLR 82.8 76.1 80% 91 30 0.0
11 20:35 E 7 10.00 Fair CLR 82.6 75.6 79% 90 29.99 0.0
11 20:15 SE 6 10.00 Fair CLR 82.6 75.2 78% 90 30 0.0
11 19:55 E 6 10.00 Partly Cloudy SCT018 82.8 75.4 78% 90 30 0.0
11 19:35 E 5 10.00 Partly Cloudy SCT018 82.6 76.1 81% 90 30.01 0.0
11 19:15 E 5 10.00 Fair CLR 82.4 75.7 80% 90 30.01 0.0
11 18:55 E 6 10.00 Fair CLR 82.8 75 84.4 77.4 78% 90 30.01 0.0 0.03
11 18:35 E 7 10.00 Fair CLR 82.8 75 78% 90 30.02 0.0
11 18:15 E 9 10.00 Fair CLR 82.9 75 77% 90 30.01 0.0
11 17:55 E 8 10.00 Fair CLR 83.1 74.3 75% 90 30.01 0.0
11 17:35 E 10 10.00 Fair CLR 83.1 73.6 73% 89 30 0.0
11 17:15 E 12 10.00 Fair CLR 83.1 73.8 73% 90 30 0.0
11 16:55 E 9 10.00 Fair CLR 82.8 74.5 76% 90 30 0.0
11 16:35 E 10 10.00 Fair CLR 82.9 75 77% 90 30.01 0.0
11 16:15 E 13 10.00 Fair CLR 82.9 73.8 74% 89 30.01 0.0
11 15:55 E 14 10.00 Fair CLR 83.3 75.2 77% 91 30.02 0.0 0.03
11 15:35 E 14 10.00 Fair CLR 83.7 74.8 75% 91 30.02 0.0
11 15:15 E 13 10.00 Fair CLR 83.5 74.8 75% 91 30.02 0.0
11 14:55 E 12 10.00 Fair CLR 82.4 75.4 79% 90 30.02 0.0
11 14:35 E 10 10.00 Fair CLR 82.2 76.6 83% 90 30.02 0.0
11 14:15 E 9 10.00 Partly Cloudy SCT037 SCT045 81.1 76.1 85% 88 30.03 0.0
11 13:55 E 13 10.00 Light Rain SCT033 SCT046 BKN065 78.8 74.1 86% 82 30.03 0.0 0.03
11 13:35 E 12 10.00 Rain SCT037 BKN070 OVC095 78.1 73.4 86% 81 30.03 0.0 0.02
11 13:15 E 10 7.00 Light Rain OVC095 77.5 74.5 90% 79 30.05 0.0 0.02
11 12:55 SE 8 7.00 Light Rain Fog/Mist SCT075 OVC095 78.1 75.2 81.1 77.9 91% 81 30.05 0.0 0.07 0.19
11 12:35 SE 8 7.00 Thunderstorm Light Rain Fog/Mist SCT012 SCT025 OVC095 78.1 75 90% 81 30.06 0.0 0.04
11 12:15 SE 8 10.00 Thunderstorm Light Rain BKN014 BKN029 OVC095 79.3 75.6 88% 84 30.06 0.0 0.02
11 11:55 E 12 10.00 Thunderstorm Light Rain BKN012 BKN042 OVC048 80.2 76.6 89% 86 30.06 0.0 0.01
11 11:35 NE 10 10.00 Thunderstorm Light Rain in Vicinity SCT010 BKN040 OVC090 80.2 77.2 90% 86 30.05 0.0 0.01
11 11:15 N 10 10.00 Thunderstorm Light Rain SCT035 BKN046 OVC090 80.6 77.2 89% 87 30.05 0.0
11 10:55 N 12 10.00 Thunderstorm Light Rain SCT033 BKN050 OVC070 81 77.7 90% 88 30.05 0.0
11 10:35 N 10 10.00 Thunderstorm Light Rain SCT049 BKN060 OVC070 81 77 88% 88 30.04 0.0
11 10:15 N 13 10.00 Thunderstorm SCT007 BKN049 BKN070 80.6 77.4 90% 87 30.04 0.0
11 09:55 N 12 10.00 Thunderstorm SCT007 80.4 78.3 93% 87 30.03 0.0 0.11
11 09:35 N 7 10.00 Thunderstorm in Vicinity SCT006 79.7 77.7 94% 85 30.04 0.0
11 09:15 N 10 10.00 Thunderstorm BKN006 BKN026 BKN041 79.2 77.4 94% 84 30.03 0.0
11 08:55 N 10 10.00 Thunderstorm in Vicinity BKN006 OVC038 79.3 77.4 94% 84 30.03 0.0 0.11
11 08:35 N 10 10.00 Thunderstorm SCT020 BKN035 OVC041 79 77 94% 83 30.03 0.0 0.11
11 08:15 N 9 2.50 Light Rain Fog/Mist BKN020 BKN029 OVC075 78.6 75.9 91% 82 30.03 0.0 0.1
11 07:55 N 7 10.00 Mostly Cloudy SCT021 SCT055 BKN080 80.1 75.9 87% 85 30.02 0.0
11 07:35 N 7 10.00 Partly Cloudy SCT029 SCT037 80.1 76.3 88% 86 30 0.0
11 07:15 N 5 10.00 Partly Cloudy SCT029 SCT037 80.1 76.5 89% 86 30 0.0
11 06:55 NW 5 10.00 Thunderstorm in Vicinity CLR 79.5 75.7 84.2 79.3 88% 84 29.99 0.0
11 06:35 NW 7 10.00 Partly Cloudy SCT021 SCT037 SCT055 80.1 76.3 88% 86 29.99 0.0
11 05:55 W 5 10.00 Thunderstorm BKN021 BKN027 BKN070 83.1 77.4 83% 93 29.99 0.0
11 05:35 S 5 10.00 Thunderstorm in Vicinity SCT021 SCT029 83.5 77.2 81% 93 29.99 0.0
11 05:15 S 6 10.00 Partly Cloudy SCT021 SCT029 83.5 76.8 80% 93 29.98 0.0
11 04:55 S 5 10.00 Partly Cloudy SCT028 SCT039 SCT065 83.5 76.3 79% 92 29.98 0.0
11 04:35 S 6 10.00 Overcast SCT021 BKN027 OVC060 83.3 77 81% 93 29.98 0.0
11 04:15 S 3 10.00 Overcast BKN021 BKN035 OVC048 83.8 77.5 81% 94 29.98 0.0
11 03:55 S 5 10.00 Partly Cloudy SCT021 BKN025 SCT043 84 77.2 80% 94 29.98 0.0
11 03:35 S 3 10.00 Partly Cloudy SCT021 SCT025 84 77.4 80% 94 29.98 0.0
11 03:15 SE 6 10.00 Partly Cloudy SCT021 SCT027 84 77.2 80% 94 29.98 0.0
11 02:55 S 5 10.00 Partly Cloudy SCT021 83.7 77.2 81% 93 29.98 0.0
11 02:35 SE 5 10.00 Partly Cloudy SCT019 83.8 77.4 81% 94 29.98 0.0
11 02:15 S 5 10.00 Fair CLR 83.8 77.4 81% 94 29.98 0.0
11 01:55 SE 5 10.00 Fair CLR 83.5 77.5 82% 93 29.98 0.0
11 01:35 SE 6 10.00 Fair CLR 83.8 77.4 81% 94 29.98 0.0
11 01:15 SE 6 10.00 Fair CLR 83.5 77.7 83% 94 29.98 0.0
11 00:55 SE 6 10.00 Partly Cloudy SCT019 84 77.2 85.6 77.9 80% 94 29.99 0.0 0.39
11 00:35 SE 6 10.00 Partly Cloudy SCT021 83.7 78.3 84% 94 29.99 0.0
11 00:15 E 5 10.00 Partly Cloudy SCT017 SCT023 83.1 78.8 87% 94 29.99 0.0
10 23:55 E 6 10.00 Mostly Cloudy SCT017 BKN023 83.1 79 87% 94 29.99 0.0
10 23:35 E 3 10.00 Partly Cloudy SCT017 82.2 78.3 88% 92 29.98 0.0
10 23:15 Calm 10.00 Fair CLR 81 77.9 90% 88 29.98 0.0
10 22:55 NE 3 10.00 Fair CLR 80.6 78.1 92% 88 29.98 0.0
10 22:35 Calm 10.00 Partly Cloudy SCT120 80.2 77.4 91% 86 29.98 0.0
10 22:15 Calm 10.00 Mostly Cloudy BKN110 79.9 77.2 92% 86 29.99 0.0
10 21:55 W 6 10.00 Overcast SCT026 SCT047 OVC120 79.2 77.2 94% 84 30.01 0.0 0.39 0.39
10 21:15 Calm 1.75 Heavy Rain Fog/Mist BKN020 BKN033 OVC055 78.3 74.8 89% 81 30.02 0.0 0.31
10 20:55 NE 10 10.00 Overcast SCT022 BKN047 OVC085 80.6 73.4 79% 85 30.01 0.0
10 20:35 NE 17 G 23 10.00 Overcast SCT017 BKN022 OVC050 83.5 75.9 78% 92 30.01 0.0
10 20:15 E 7 10.00 Mostly Cloudy BKN022 BKN029 85.3 77.7 78% 97 30 0.0
10 19:55 E 6 10.00 Fair CLR 85.3 77.2 77% 96 30 0.0
10 19:35 E 7 10.00 Fair CLR 85.5 77.9 78% 97 29.99 0.0
10 19:15 E 8 10.00 Partly Cloudy SCT024 SCT033 85.3 77.4 77% 96 29.98 0.0
10 18:55 Calm 10.00 Partly Cloudy SCT024 SCT033 83.5 77.7 91.4 80.4 83% 94 29.98 0.0 0.04
10 18:35 NW 6 10.00 Fair CLR 85.1 77.4 78% 96 29.98 0.0
10 18:15 Calm 10.00 Fair CLR 84.7 77.5 79% 96 29.98 0.0
10 17:55 Calm 10.00 Partly Cloudy SCT100 SCT120 83.5 75.7 78% 92 29.98 0.0 0.04
10 17:35 N 6 10.00 Overcast SCT026 BKN065 OVC095 81.3 74.7 80% 87 29.99 0.0 0.04
10 17:15 E 14 G 28 5.00 Mostly Cloudy with Haze SCT023 BKN029 BKN036 85.8 73.6 67% 93 29.99 0.0 0.01
10 16:55 SE 8 10.00 Partly Cloudy SCT021 SCT034 88.3 77.2 70% 101 29.99 0.0
10 16:35 SE 10 10.00 Partly Cloudy SCT021 SCT028 SCT034 89.1 77.4 68% 102 29.99 0.0
10 16:15 E 10 10.00 Partly Cloudy SCT021 89.6 77 67% 103 29.98 0.0
10 15:55 SE 12 10.00 Partly Cloudy SCT021 88.5 77 69% 101 29.97 0.0
10 15:35 SE 10 10.00 Partly Cloudy SCT021 88.3 77.4 70% 101 29.97 0.0
10 15:15 E 12 10.00 Partly Cloudy SCT021 88.5 77 69% 101 29.97 0.0
10 14:55 E 13 10.00 Fair CLR 88.7 77.7 70% 102 29.98 0.0
10 14:35 E 13 10.00 Partly Cloudy SCT020 88.5 77.2 69% 101 29.98 0.0
10 14:15 E 12 10.00 Partly Cloudy SCT021 88.9 77 68% 101 30 0.0
10 13:55 SE 10 10.00 Partly Cloudy SCT021 90 76.8 65% 103 30 0.0
10 13:35 E 9 10.00 Fair CLR 90 76.8 65% 103 30 0.0
10 13:15 E 10 10.00 Fair CLR 90.3 77.2 65% 104 30 0.0
10 12:55 E 10 10.00 Fair CLR 89.8 76.6 90.7 81.7 65% 102 30 0.0
10 12:35 E 9 10.00 Fair CLR 89.8 77 66% 103 30.01 0.0
10 12:15 E 8 10.00 Fair CLR 89.1 77.2 68% 102 30.02 0.0
10 11:55 E 9 10.00 Fair CLR 88.3 77.4 70% 101 30.01 0.0
10 11:35 E 9 10.00 Fair CLR 89.1 77.5 69% 102 30.02 0.0
10 11:15 E 8 10.00 Fair CLR 87.8 78.1 73% 101 30.02 0.0
10 10:55 E 9 10.00 Fair CLR 88.3 78.1 72% 102 30.02 0.0
10 10:35 E 7 10.00 Fair CLR 88.5 77.9 71% 102 30.02 0.0
10 10:20 E 6 10.00 Fair CLR 88.3 77.4 70% 101 30.02 0.0
10 09:55 E 7 10.00 Fair CLR 88.2 75.9 67% 99 30.01 0.0
10 09:35 E 7 10.00 Mostly Cloudy BKN017 87.6 76.6 70% 99 30.01 0.0
10 09:15 NE 5 10.00 Overcast BKN017 OVC023 86.4 78.3 77% 99 30.01 0.0
10 08:55 N 6 10.00 Partly Cloudy SCT017 SCT023 SCT038 85.3 78.3 80% 97 30.01 0.0
10 08:35 NE 6 10.00 Fair CLR 84.9 78.3 81% 97 30 0.0
10 08:15 N 5 10.00 Fair CLR 83.8 78.4 84% 95 30 0.0
10 07:55 N 5 10.00 Fair CLR 82.9 78.1 85% 93 29.99 0.0
10 07:35 N 7 10.00 Fair CLR 82.4 78.3 87% 92 29.99 0.0
10 07:15 N 5 10.00 Fair CLR 82 78.3 88% 91 29.98 0.0
10 06:55 N 5 10.00 Fair CLR 81.7 78.1 85.5 81.5 89% 90 29.98 0.0
10 06:35 N 6 10.00 Fair CLR 82 77.7 87% 91 29.97 0.0
10 06:15 Calm 10.00 Fair CLR 82.9 77.7 84% 93 29.96 0.0
10 05:55 Calm 10.00 Fair CLR 83.7 77.4 81% 94 29.96 0.0
10 05:35 Calm 10.00 Partly Cloudy SCT020 SCT027 84 77.4 80% 94 29.96 0.0
10 05:15 Calm 10.00 Partly Cloudy SCT020 SCT027 84 77 80% 94 29.96 0.0
10 04:55 S 3 10.00 Partly Cloudy SCT020 83.8 77.2 80% 94 29.96 0.0
10 04:35 S 5 10.00 Partly Cloudy SCT020 84 77 80% 94 29.96 0.0
10 04:15 S 7 10.00 Partly Cloudy SCT025 84.4 77 79% 94 29.96 0.0
10 03:55 S 6 10.00 Partly Cloudy SCT018 SCT025 SCT033 84.6 77.5 80% 95 29.96 0.0
10 03:35 S 7 10.00 Partly Cloudy SCT018 SCT025 SCT033 84.7 78.1 81% 96 29.96 0.0
10 03:15 S 9 10.00 Partly Cloudy SCT018 SCT026 SCT055 84.7 77.7 80% 96 29.96 0.0
10 02:55 S 9 10.00 Partly Cloudy SCT018 SCT024 SCT030 84.9 78.1 80% 97 29.96 0.0
10 02:35 S 8 10.00 Partly Cloudy SCT018 84.7 77.9 80% 96 29.97 0.0
10 02:15 S 7 10.00 Partly Cloudy SCT020 85.1 77.5 78% 96 29.97 0.0
10 01:55 S 8 10.00 Partly Cloudy SCT020 SCT028 SCT033 85.1 77.9 79% 97 29.97 0.0
10 01:35 S 8 10.00 Mostly Cloudy SCT018 SCT023 BKN028 85.1 78.1 80% 97 29.97 0.0
10 01:15 S 10 10.00 Mostly Cloudy SCT018 BKN023 BKN031 85.3 78.6 81% 98 29.98 0.0
10 00:55 S 9 10.00 Partly Cloudy BKN018 SCT026 85.3 78.3 88.7 85.3 80% 97 29.98 0.0
10 00:35 SE 9 10.00 Partly Cloudy SCT018 SCT024 85.3 77.7 78% 97 29.97 0.0
10 00:15 S 12 10.00 Mostly Cloudy BKN018 85.5 78.4 80% 98 29.98 0.0
09 23:55 SE 9 10.00 Partly Cloudy SCT018 85.5 78.6 80% 98 29.97 0.0
09 23:35 SE 9 10.00 Fair CLR 85.5 78.4 80% 98 29.97 0.0
09 23:15 SE 9 10.00 Partly Cloudy SCT019 85.5 78.4 80% 98 29.96 0.0
09 22:55 SE 9 10.00 Partly Cloudy SCT019 85.6 78.3 79% 98 29.98 0.0
09 22:35 SE 8 10.00 Partly Cloudy SCT019 85.8 78.1 78% 98 29.98 0.0
09 22:15 SE 8 10.00 Mostly Cloudy BKN019 85.8 77.7 77% 98 29.98 0.0
09 21:55 SE 6 10.00 Mostly Cloudy BKN019 86 78.4 78% 99 29.99 0.0
09 21:35 SE 8 10.00 Partly Cloudy SCT021 86.2 77.9 76% 99 29.98 0.0
09 21:15 SE 9 10.00 Partly Cloudy SCT019 86.4 77.9 76% 99 29.97 0.0
09 20:55 SE 10 10.00 Partly Cloudy SCT019 86.4 78.3 77% 99 29.96 0.0
09 20:35 SE 10 10.00 Partly Cloudy SCT017 86.4 78.8 78% 100 29.94 0.0
09 20:15 SE 13 10.00 Fair CLR 86.7 78.4 76% 100 29.92 0.0
09 19:55 SE 14 10.00 Fair CLR 86.9 78.3 76% 100 29.9 0.0
09 19:35 SE 14 10.00 Fair CLR 87.8 78.3 73% 102 29.9 0.0
09 19:15 SE 10 10.00 Fair CLR 88.3 77.7 71% 102 29.9 0.0
09 18:55 SE 13 10.00 Fair CLR 88.3 78.3 91 88.3 72% 102 29.9 0.0
09 18:35 SE 12 10.00 Fair CLR 89.2 78.4 71% 104 29.9 0.0
09 18:15 SE 10 10.00 Fair CLR 89.4 77.9 69% 104 29.9 0.0
09 17:55 SE 13 10.00 Fair CLR 89.8 78.3 69% 105 29.9 0.0
09 17:35 SE 12 10.00 Fair CLR 90 78.4 69% 105 29.91 0.0
09 17:15 E 10 10.00 Fair CLR 89.6 78.1 69% 104 29.91 0.0
09 16:55 SE 10 10.00 Fair CLR 90 77.9 68% 104 29.91 0.0
09 16:35 SE 10 10.00 Fair CLR 90 78.3 69% 105 29.92 0.0
09 16:15 SE 13 10.00 Fair CLR 89.4 77.9 69% 104 29.91 0.0
09 15:55 SE 10 10.00 Fair CLR 89.6 77.7 68% 104 29.92 0.0
09 15:35 SE 12 10.00 Fair CLR 89.8 78.1 69% 104 29.92 0.0
09 15:15 SE 10 10.00 Fair CLR 89.8 77.7 68% 104 29.92 0.0
Date Time (cdt) Wind (mph) Vis. (mi.) Weather Sky Cond. Air Dwpt Max. Min. Relative Humidity Wind Chill (°F) Heat Index (°F) altimeter (in) sea level (mb) 1 hr 3 hr 6 hr
6 hour
Temperature (ºF) Pressure Precipitation (in)